Location: Camaret
(48.2753°N, 4.5961°W)
Time: 04:39:38
(UTC+00:00)

SMAP - Pass Details

Date: 29 October 2020
Orbit: 681 x 683 km, 98.1° (Epoch: 01 December)

Event Time Altitude Azimuth Distance (km) Brightness Sun altitude
Rises 18:01:04 0° 178° (S) 3,033 6.5 -10.1°
Reaches altitude 10° 18:03:21 10° 184° (S) 2,122 5.8 -10.5°
Maximum altitude 18:07:53 51° 260° (W) 864 4.1 -11.2°
Drops below altitude 10° 18:12:26 10° 337° (NNW) 2,138 5.8 -11.9°
Sets 18:14:45 0° 342° (NNW) 3,058 6.6 -12.3°
